Wind_Speed
18 17 16 15 14 14 13 13 12 11 11 10 9 9 8 8 8 8 8 8 8 8 8 8 8 8 8 8 8 7 7 7 7 7 8 8 8 8 8 8 7 7 7
20 18 17 16 16 15 15 14 14 13 13 12 11 11 10 10 10 10 10 10 10 9 9 9 9 9 9 10 10 10 9 10 10 9 9 9 10 10 10 10 10 10 10
21 20 18 18 17 16 16 15 15 14 14 13 13 13 12 12 12 11 11 11 11 11 11 11 11 11 11 11 12 12 12 12 12 12 12 12 12 12 12 12 12 12 12
22 21 20 19 18 17 16 16 15 14 14 14 14 14 14 14 14 14 14 13 13 13 12 13 13 13 13 13 13 13 13 14 14 14 14 14 14 14 14 14 14 14 14
23 22 21 19 18 17 17 16 16 15 15 14 14 14 14 14 15 15 15 15 15 15 15 15 15 15 15 15 15 15 15 15 15 15 15 15 16 16 16 16 16 16 16
24 23 22 20 19 19 18 17 17 17 16 16 16 15 15 15 15 15 16 16 16 16 16 16 17 17 17 16 16 16 17 17 17 17 17 17 17 17 18 18 18 18 18
24 23 22 21 20 20 19 19 18 18 18 18 17 17 17 16 16 17 17 17 17 17 17 18 18 18 18 18 18 18 18 18 18 19 19 19 19 19 20 20 20 20 20
25 24 23 22 21 21 20 20 20 20 20 20 19 19 19 19 18 18 19 19 19 19 19 20 20 20 20 20 20 21 21 21 21 21 21 21 21 22 22 22 22 22 22
26 25 24 23 23 22 22 22 21 21 21 21 21 21 21 20 20 21 21 21 21 22 22 22 22 22 22 22 22 23 23 23 23 23 23 23 23 23 23 23 23 23 23
26 25 25 24 24 24 23 23 23 23 23 23 23 23 22 22 23 23 23 23 24 24 24 25 25 25 25 25 25 25 25 25 25 25 25 25 25 25 25 25 25 26 26
27 26 26 26 25 25 24 24 24 24 24 24 24 24 24 24 24 25 25 25 26 26 26 26 27 27 27 27 27 27 27 27 27 27 27 27 27 27 27 27 27 27 28
28 27 27 26 26 25 25 25 25 25 25 24 25 25 26 26 26 27 27 27 27 27 27 27 28 28 28 28 28 28 28 29 29 29 29 29 29 29 29 29 29 29 29
29 28 28 27 27 26 26 27 26 26 26 26 27 27 27 28 28 28 28 28 28 28 28 28 28 29 29 29 29 29 29 29 29 29 29 30 30 30 31 31 31 30 30
30 29 29 28 28 28 28 28 28 28 28 28 28 28 29 29 29 29 29 30 30 30 30 31 31 31 30 30 30 30 30 30 30 31 31 31 31 31 32 32 32 32 32
31 30 30 30 29 29 29 29 29 29 29 29 29 29 29 30 30 30 31 31 32 32 32 32 33 33 32 32 32 32 32 32 32 33 33 33 34 34 35 35 35 35 35
31 31 31 31 31 30 30 29 30 30 30 29 29 30 30 30 31 31 32 32 32 33 34 34 34 34 34 34 34 34 34 35 35 35 35 36 36 37 37 37 37 37 37
32 32 32 32 32 32 32 32 31 30 31 31 31 30 31 31 32 32 33 34 34 34 35 35 35 35 35 35 35 35 35 36 37 37 37 38 38 38 39 40 40 40 40
32 33 33 33 33 34 34 33 32 31 32 31 31 31 31 31 32 32 33 33 34 34 35 35 36 36 36 36 37 37 37 38 38 38 39 39 39 39 40 41 42 43 43
33 33 34 34 35 34 34 34 33 32 32 32 32 33 33 32 32 32 33 34 34 34 35 36 36 37 37 38 38 38 38 39 39 40 40 40 40 41 41 42 42 43 43
32 33 34 34 34 34 33 34 34 34 34 33 34 34 34 34 34 34 35 35 35 35 36 36 37 38 38 38 39 39 39 40 40 41 41 42 42 42 42 43 43 43 44
33 33 33 34 35 35 35 35 36 36 36 35 35 35 35 35 35 36 36 36 36 36 36 37 37 38 39 40 40 40 40 41 41 42 42 42 42 43 43 44 44 45 46
35 35 35 35 35 36 37 37 37 38 37 37 36 36 36 36 36 36 36 36 36 36 37 38 38 38 39 39 40 41 40 40 41 41 41 42 42 43 43 43 44 45 46
35 35 35 35 36 37 38 38 38 38 38 38 37 36 36 36 36 37 37 36 36 37 37 37 37 37 38 39 40 40 40 39 40 40 40 41 41 41 42 43 44 44 45
35 35 35 35 35 36 36 36 37 37 37 37 37 37 37 36 36 36 36 36 37 37 38 38 38 38 39 39 40 40 40 40 40 39 39 40 41 42 43 44 45 45 46
34 35 35 35 36 36 36 36 36 36 36 36 37 37 37 38 37 37 37 37 37 37 38 38 39 39 40 40 40 40 40 41 41 41 41 42 42 43 43 44 45 46 47
34 34 34 35 35 35 35 35 35 35 35 36 36 36 37 37 37 37 37 37 37 37 38 39 40 40 40 40 40 40 40 41 41 42 42 42 42 43 43 44 44 45 47
Wind_Direction
237 237 237 238 238 239 241 243 245 247 250 253 254 256 259 263 266 268 270 271 271 270 270 270 271 273 274 275 274 273 274 274 273 274 275 274 274 275 275 275 276 279 280
236 237 236 236 238 239 240 243 246 248 251 254 257 259 261 263 267 270 272 274 274 274 275 275 274 275 274 275 276 276 275 275 274 274 276 277 276 275 274 274 275 275 276
233 235 236 237 238 240 242 244 246 249 252 255 257 260 263 265 267 269 272 274 275 277 277 278 278 277 277 277 277 276 276 277 277 276 275 276 276 276 277 276 277 275 274
233 233 235 237 238 240 242 244 246 249 253 255 258 261 263 265 266 268 271 274 275 277 278 279 280 279 278 277 277 278 277 276 277 277 277 276 275 275 275 277 278 278 276
231 232 234 236 238 240 242 243 246 250 254 257 259 262 264 266 268 269 272 275 276 277 278 279 280 280 280 279 279 278 277 277 277 278 277 276 275 275 275 275 277 278 278
230 232 234 236 239 241 243 246 248 251 254 258 260 262 265 268 269 271 273 275 277 279 279 280 280 280 280 280 280 280 279 278 278 277 277 276 276 276 277 277 277 277 277
231 233 234 237 239 242 245 248 250 252 254 257 260 262 265 268 270 272 274 276 277 279 280 280 281 281 281 280 280 280 279 279 278 278 277 277 277 277 277 277 277 276 277
231 233 235 238 240 244 246 249 251 254 256 258 260 263 266 268 271 273 275 276 277 278 279 280 281 281 281 281 281 280 279 279 278 278 278 278 277 277 277 277 278 276 276
231 233 236 239 242 245 247 250 252 254 257 259 262 264 266 268 271 273 275 276 277 278 279 280 280 281 281 281 281 281 280 279 278 278 278 278 278 277 277 276 277 277 277
232 235 237 240 243 246 249 252 254 256 258 261 263 264 266 269 270 272 274 275 276 278 278 279 279 280 280 280 281 280 280 279 279 279 278 278 278 278 277 277 276 276 276
234 237 240 243 245 247 250 254 256 258 260 262 264 265 267 270 272 274 275 276 277 278 278 279 279 279 279 279 279 279 279 279 279 279 278 278 277 277 277 277 277 276 276
237 239 243 245 247 250 253 255 258 260 261 263 265 267 269 270 273 274 275 276 277 278 278 279 280 280 280 280 280 280 280 279 279 279 278 278 277 277 277 277 277 277 276
239 241 244 246 249 252 254 256 258 261 262 264 266 268 270 271 272 273 275 276 277 278 278 279 279 280 280 281 281 281 280 280 280 280 279 279 278 277 277 277 276 277 277
240 242 245 247 250 253 256 257 259 261 263 264 266 269 270 272 273 274 275 276 277 278 278 278 278 279 279 280 281 281 281 281 281 281 280 279 279 278 278 277 276 276 276
242 244 246 248 251 254 257 259 260 262 264 267 268 269 270 272 273 274 275 276 277 278 278 278 278 278 279 279 280 280 280 281 281 281 281 280 279 279 278 277 276 276 276
243 245 247 249 251 254 257 260 262 263 265 268 269 270 271 272 274 275 275 276 277 278 278 278 278 278 278 278 279 280 280 280 280 281 281 281 280 279 278 277 276 275 275
244 246 248 250 252 254 257 260 263 264 265 268 269 271 272 273 275 275 275 276 277 279 280 279 278 278 279 279 280 281 281 281 280 281 281 281 280 279 278 276 275 275 274
246 248 250 251 254 256 257 260 263 264 265 267 270 272 274 275 275 276 277 278 279 279 280 281 280 279 280 280 281 281 281 281 281 281 281 280 280 279 277 277 276 275 274
247 249 252 254 255 258 259 261 263 266 267 268 271 273 275 275 276 276 278 279 280 280 280 281 282 281 281 281 281 282 282 282 282 282 281 281 280 279 278 277 276 275 274
249 251 254 256 257 259 260 261 264 267 270 270 270 272 273 274 276 277 279 280 280 281 282 281 282 282 282 282 282 282 283 283 283 283 282 281 280 279 279 278 276 276 275
251 253 256 258 258 259 261 263 266 268 270 271 272 272 272 273 275 277 278 279 280 281 282 282 282 283 283 283 283 283 283 283 283 283 283 282 281 280 280 279 278 277 276
253 255 257 260 261 262 263 266 268 269 270 271 273 273 273 274 276 277 278 279 280 281 282 283 283 283 284 284 284 283 283 283 284 284 284 283 282 281 280 279 278 278 276
255 257 258 261 263 264 265 267 269 270 270 271 273 274 274 275 275 276 278 279 280 281 282 283 283 284 284 285 285 285 285 284 283 284 285 285 284 283 282 281 279 278 277
256 258 260 261 263 265 266 268 270 271 271 272 273 274 274 275 276 276 277 278 279 280 281 282 282 283 284 286 285 285 285 285 284 283 283 284 283 283 283 282 279 277 276
258 260 261 262 264 265 267 269 270 271 271 272 274 275 276 277 276 277 278 278 280 281 281 281 283 284 284 285 286 286 285 285 285 284 284 284 283 284 284 283 282 279 276
259 260 261 262 264 265 267 269 270 271 271 272 274 275 276 277 278 278 279 280 281 282 283 282 283 284 284 285 285 285 285 286 286 286 286 285 284 284 284 283 283 283 280
Height
5864 5865 5867 5869 5870 5871 5873 5874 5875 5875 5876 5877 5877 5878 5878 5878 5878 5879 5879 5879 5879 5879 5879 5879 5879 5879 5879 5879 5879 5879 5879 5879 5879 5879 5879 5879 5879 5879 5879 5879 5879 5879 5878
5861 5863 5865 5866 5868 5869 5871 5872 5873 5874 5875 5875 5876 5876 5877 5877 5877 5877 5878 5878 5878 5878 5878 5878 5878 5878 5878 5878 5878 5878 5878 5878 5878 5878 5878 5878 5878 5877 5877 5877 5877 5877 5877
5858 5860 5862 5864 5865 5867 5868 5870 5871 5872 5873 5873 5874 5874 5875 5875 5875 5876 5876 5876 5876 5876 5877 5877 5877 5877 5877 5877 5876 5876 5876 5876 5876 5876 5876 5876 5876 5876 5876 5875 5875 5875 5875
5856 5857 5859 5861 5863 5864 5866 5867 5869 5870 5870 5871 5872 5872 5873 5873 5874 5874 5874 5874 5875 5875 5875 5875 5875 5875 5875 5875 5875 5874 5874 5874 5874 5874 5874 5874 5874 5874 5873 5873 5873 5873 5873
5852 5854 5856 5858 5860 5862 5864 5865 5866 5867 5868 5869 5870 5870 5871 5871 5871 5872 5872 5872 5872 5872 5873 5873 5873 5872 5872 5872 5872 5872 5872 5872 5872 5872 5872 5871 5871 5871 5871 5871 5871 5870 5870
5849 5851 5853 5855 5857 5859 5861 5862 5864 5865 5866 5866 5867 5868 5868 5869 5869 5869 5869 5869 5870 5870 5870 5870 5870 5870 5870 5870 5869 5869 5869 5869 5869 5869 5869 5868 5868 5868 5868 5868 5868 5867 5867
5845 5848 5850 5852 5854 5856 5858 5859 5860 5862 5863 5863 5864 5865 5865 5866 5866 5866 5866 5867 5867 5867 5867 5867 5867 5867 5867 5866 5866 5866 5866 5866 5866 5866 5865 5865 5865 5865 5864 5864 5864 5864 5864
5841 5844 5846 5849 5851 5853 5854 5856 5857 5858 5859 5860 5861 5862 5862 5863 5863 5863 5863 5863 5863 5863 5863 5863 5863 5863 5863 5863 5863 5862 5862 5862 5862 5862 5862 5861 5861 5861 5861 5860 5860 5860 5860
5837 5840 5843 5845 5847 5849 5850 5852 5853 5854 5855 5856 5857 5858 5859 5859 5859 5859 5859 5859 5859 5859 5859 5859 5859 5859 5859 5859 5858 5858 5858 5858 5858 5858 5858 5857 5857 5856 5856 5856 5856 5856 5855
5833 5836 5839 5841 5843 5845 5846 5848 5849 5850 5851 5852 5853 5854 5855 5855 5855 5855 5855 5855 5855 5855 5855 5855 5855 5855 5854 5854 5854 5854 5853 5853 5853 5853 5853 5852 5852 5852 5851 5851 5851 5851 5850
5829 5832 5834 5837 5839 5840 5842 5844 5845 5846 5847 5848 5849 5850 5850 5850 5851 5851 5851 5851 5850 5850 5850 5850 5849 5849 5849 5849 5849 5848 5848 5848 5848 5848 5847 5847 5847 5846 5846 5846 5846 5845 5845
5824 5827 5830 5832 5834 5836 5838 5839 5840 5841 5842 5843 5844 5845 5845 5845 5846 5846 5846 5845 5845 5845 5845 5844 5844 5844 5843 5843 5843 5843 5842 5842 5842 5842 5841 5841 5841 5841 5840 5840 5840 5839 5839
5819 5822 5825 5827 5829 5831 5833 5834 5836 5837 5838 5838 5839 5840 5840 5840 5840 5840 5840 5840 5840 5839 5839 5839 5838 5838 5838 5837 5837 5837 5836 5836 5835 5835 5835 5835 5834 5834 5834 5834 5833 5833 5833
5815 5817 5820 5822 5824 5826 5827 5828 5830 5831 5832 5833 5833 5834 5834 5834 5834 5834 5834 5834 5834 5833 5833 5833 5832 5832 5832 5831 5831 5830 5830 5830 5829 5829 5829 5828 5828 5827 5827 5827 5827 5826 5826
5810 5812 5815 5817 5819 5820 5822 5823 5825 5826 5827 5827 5828 5828 5828 5828 5828 5828 5828 5828 5827 5827 5826 5826 5825 5825 5825 5825 5824 5824 5823 5823 5822 5822 5821 5821 5821 5820 5820 5819 5819 5819 5819
5804 5807 5809 5811 5813 5815 5816 5817 5818 5819 5820 5821 5822 5822 5822 5822 5822 5822 5821 5821 5820 5820 5819 5818 5818 5818 5817 5817 5817 5816 5816 5815 5815 5814 5814 5813 5813 5812 5811 5811 5811 5811 5810
5799 5801 5804 5806 5807 5809 5810 5811 5812 5813 5814 5815 5815 5816 5816 5816 5815 5815 5814 5814 5813 5812 5812 5811 5810 5810 5810 5809 5809 5808 5808 5807 5806 5806 5805 5804 5804 5803 5803 5802 5802 5802 5801
5793 5796 5798 5800 5801 5802 5803 5805 5806 5807 5808 5808 5809 5809 5809 5809 5808 5808 5807 5806 5806 5805 5804 5803 5803 5802 5802 5801 5801 5800 5799 5798 5798 5797 5796 5795 5794 5794 5793 5793 5792 5792 5792
5787 5789 5791 5793 5795 5795 5797 5798 5799 5800 5801 5801 5802 5802 5802 5802 5801 5801 5800 5799 5798 5797 5796 5796 5795 5794 5793 5792 5792 5791 5790 5789 5788 5787 5786 5785 5784 5784 5783 5783 5782 5782 5781
5781 5783 5785 5787 5788 5789 5790 5792 5793 5793 5794 5794 5795 5795 5795 5795 5794 5793 5793 5792 5791 5790 5788 5787 5787 5786 5785 5784 5783 5782 5781 5779 5778 5777 5776 5775 5774 5773 5773 5772 5772 5771 5771
5775 5777 5779 5781 5782 5783 5784 5785 5786 5786 5787 5787 5787 5787 5787 5787 5786 5786 5785 5784 5783 5782 5781 5779 5778 5777 5776 5774 5774 5773 5771 5770 5768 5767 5765 5764 5764 5763 5762 5761 5761 5760 5759
5769 5771 5773 5774 5775 5776 5778 5778 5779 5779 5780 5780 5779 5779 5779 5778 5778 5777 5777 5776 5775 5773 5772 5771 5769 5768 5766 5765 5764 5762 5762 5761 5759 5757 5755 5754 5753 5752 5751 5750 5749 5747 5747
5763 5764 5766 5767 5768 5769 5770 5771 5771 5771 5771 5772 5771 5771 5770 5770 5769 5769 5768 5767 5766 5765 5763 5762 5760 5758 5757 5755 5754 5752 5751 5751 5749 5748 5745 5743 5742 5741 5740 5738 5737 5736 5735
5756 5757 5759 5760 5761 5762 5762 5763 5763 5763 5763 5763 5763 5762 5762 5761 5760 5760 5759 5758 5757 5756 5754 5753 5751 5749 5748 5746 5744 5742 5741 5739 5738 5738 5736 5733 5731 5730 5728 5727 5725 5724 5722
5749 5750 5751 5752 5753 5754 5755 5755 5755 5755 5755 5755 5754 5754 5753 5753 5752 5751 5750 5749 5748 5746 5745 5743 5742 5740 5738 5737 5735 5733 5731 5729 5727 5726 5726 5724 5721 5719 5717 5715 5713 5711 5710
5742 5743 5744 5745 5746 5746 5747 5747 5747 5747 5747 5747 5746 5746 5745 5744 5743 5742 5741 5740 5739 5737 5736 5734 5732 5730 5728 5727 5725 5723 5721 5719 5717 5715 5714 5712 5710 5708 5705 5703 5701 5698 5696